DW6558 Weather Reports


time (UTC)temp
C
wind
direction
speed
KPH
gust
KPH
rain 1hr
cm
rain 24hr
cm
rain mn
cm
humidity
%
barometer
mb
20260831103230 7 68 1.6 3.2 0.00 0.00 0.00 86 935.7
20260831102729 7 31 0.0 1.6 0.00 0.00 0.00 86 935.3
20260831102225 7 130 3.2 4.8 0.00 0.00 0.00 86 935.6
20260831101720 7 41 0.0 3.2 0.00 0.00 0.00 86 935.7
20260831101216 7 97 1.6 4.8 0.00 0.00 0.00 86 935.6
20260831100711 7 77 1.6 4.8 0.00 0.00 0.00 86 935.3
20260831100207 7 73 0.0 3.2 0.00 0.00 0.00 86 935.5
20260831095705 7 52 0.0 1.6 0.00 0.00 0.00 86 935.6
20260831095201 7 44 0.0 1.6 0.00 0.00 0.00 86 935.5
20260831094656 7 68 0.0 1.6 0.00 0.00 0.00 86 935.5
20260831094152 7 62 1.6 3.2 0.00 0.00 0.00 85 935.1
20260831093647 8 113 0.0 0.0 0.00 0.00 0.00 85 935.3
20260831093143 8 114 0.0 0.0 0.00 0.00 0.00 86 935.1
20260831092639 8 67 0.0 0.0 0.00 0.00 0.00 86 935.6
20260831092135 8 49 0.0 0.0 0.00 0.00 0.00 86 935.2
20260831091634 8 48 0.0 0.0 0.00 0.00 0.00 86 935.5
20260831091130 8 63 0.0 0.0 0.00 0.00 0.00 85 935.5
20260831090625 8 56 0.0 0.0 0.00 0.00 0.00 85 935.2
20260831090121 8 51 0.0 0.0 0.00 0.00 0.00 85 935.3
20260831085616 8 70 0.0 0.0 0.00 0.00 0.00 85 935.3
20260831085112 8 59 0.0 0.0 0.00 0.00 0.00 85 935.3
20260831084607 8 79 0.0 0.0 0.00 0.00 0.00 85 935.2
20260831084103 8 53 0.0 0.0 0.00 0.00 0.00 85 935.1
20260831083559 8 81 0.0 0.0 0.00 0.00 0.00 86 935.2
20260831083054 8 51 0.0 0.0 0.00 0.00 0.00 86 935.2
20260831082553 8 67 0.0 0.0 0.00 0.00 0.00 86 935.2
20260831082048 8 63 0.0 3.2 0.00 0.00 0.00 86 935.2
20260831081544 8 137 3.2 8.0 0.00 0.00 0.00 86 935.3
20260831081040 8 111 0.0 0.0 0.00 0.00 0.00 86 935.5
20260831080540 8 33 0.0 0.0 0.00 0.00 0.00 86 935.5
20260831080035 8 56 0.0 3.2 0.00 0.00 0.00 86 935.3
20260831075530 8 46 1.6 3.2 0.00 0.00 0.00 86 935.6
20260831075026 8 44 0.0 0.0 0.00 0.00 0.00 86 935.7
20260831074526 8 50 0.0 0.0 0.00 0.00 0.00 85 935.7
20260831074025 8 55 0.0 1.6 0.00 0.00 0.00 85 935.5
20260831073520 8 46 0.0 0.0 0.00 0.00 0.00 85 935.6
20260831073020 8 68 1.6 3.2 0.00 0.00 0.00 85 935.6
20260831072515 8 56 0.0 0.0 0.00 0.00 0.00 85 935.6
20260831072012 9 84 0.0 0.0 0.00 0.00 0.00 85 935.3
20260831071510 9 56 0.0 0.0 0.00 0.00 0.00 85 935.5
20260831071006 9 49 0.0 0.0 0.00 0.00 0.00 84 935.2
20260831070504 9 103 0.0 3.2 0.00 0.00 0.00 84 935.3
20260831070005 9 78 1.6 4.8 0.00 0.00 0.00 83 935.6
20260831065502 9 95 0.0 0.0 0.00 0.00 0.00 83 935.2
20260831064957 10 72 0.0 4.8 0.00 0.00 0.00 82 935.3
20260831064452 10 37 0.0 0.0 0.00 0.00 0.00 81 935.1
20260831063948 10 40 1.6 8.0 0.00 0.00 0.00 81 934.9
20260831063443 10 85 0.0 8.0 0.00 0.00 0.00 81 935.2
20260831062937 10 50 0.0 0.0 0.00 0.00 0.00 80 935.5
20260831062433 10 54 0.0 0.0 0.00 0.00 0.00 79 935.6
20260831061932 10 51 1.6 1.6 0.00 0.00 0.00 79 935.3
20260831061431 10 60 0.0 1.6 0.00 0.00 0.00 78 935.5
20260831060927 10 42 1.6 3.2 0.00 0.00 0.00 77 935.2
20260831060422 10 54 0.0 3.2 0.00 0.00 0.00 77 935.2
20260831055921 10 48 0.0 3.2 0.00 0.03 0.03 77 935.3
20260831055416 10 51 0.0 1.6 0.00 0.03 0.03 77 935.3
20260831054912 10 44 0.0 0.0 0.00 0.03 0.03 76 935.6
20260831054407 10 76 1.6 3.2 0.00 0.03 0.03 75 935.7
20260831053906 10 97 1.6 3.2 0.00 0.03 0.03 75 935.7
20260831053404 10 69 3.2 4.8 0.00 0.03 0.03 74 935.5
20260831052859 10 88 4.8 8.0 0.00 0.03 0.03 74 935.6
20260831052358 10 80 9.7 11.3 0.00 0.03 0.03 74 935.1
20260831051856 11 47 1.6 1.6 0.00 0.03 0.03 72 935.5
20260831051354 11 52 0.0 0.0 0.00 0.03 0.03 70 935.3
20260831050849 11 183 4.8 9.7 0.00 0.03 0.03 71 935.2
20260831050343 11 63 0.0 3.2 0.00 0.03 0.03 72 935.1
20260831045838 11 112 3.2 3.2 0.00 0.03 0.03 72 935.3
20260831045332 11 47 0.0 1.6 0.00 0.03 0.03 70 935.3
20260831044827 11 74 0.0 0.0 0.00 0.03 0.03 69 935.3
20260831044322 12 109 1.6 4.8 0.00 0.03 0.03 68 935.2
20260831043818 12 70 1.6 4.8 0.00 0.03 0.03 68 935.5
20260831043317 12 95 3.2 8.0 0.00 0.03 0.03 67 935.2
20260831042813 12 59 0.0 0.0 0.00 0.03 0.03 67 934.9
20260831042312 12 101 0.0 0.0 0.00 0.03 0.03 67 934.4
20260831041808 12 67 0.0 0.0 0.00 0.03 0.03 67 934.3
20260831041307 12 83 0.0 0.0 0.00 0.03 0.03 67 934.2
20260831040802 12 71 0.0 0.0 0.00 0.03 0.03 68 934.3
20260831040301 13 53 0.0 0.0 0.00 0.03 0.03 68 934.4
20260831035800 13 75 0.0 0.0 0.00 0.03 0.03 68 934.4
20260831035258 13 99 0.0 0.0 0.00 0.03 0.03 68 934.4
20260831034758 13 52 0.0 0.0 0.00 0.03 0.03 68 934.2
20260831034254 13 52 0.0 0.0 0.00 0.03 0.03 67 933.9
20260831033749 14 56 0.0 0.0 0.00 0.03 0.03 66 933.7
20260831033248 14 58 0.0 0.0 0.00 0.03 0.03 66 933.6
20260831032744 14 44 0.0 0.0 0.00 0.03 0.03 64 933.5
20260831032239 13 43 0.0 0.0 0.00 0.03 0.03 65 933.7
20260831031734 13 42 0.0 0.0 0.00 0.03 0.03 66 933.7
20260831031234 15 37 0.0 0.0 0.00 0.03 0.03 66 934.5
20260831030733 15 45 0.0 0.0 0.00 0.03 0.03 63 934.7
20260831030227 15 46 0.0 0.0 0.00 0.03 0.03 58 934.4
20260831025726 15 51 0.0 0.0 0.00 0.03 0.03 57 934.5
20260831025220 15 54 0.0 0.0 0.00 0.03 0.03 59 934.5
20260831024716 15 44 0.0 0.0 0.00 0.03 0.03 57 934.1
20260831024214 16 42 0.0 0.0 0.00 0.03 0.03 57 934.5
20260831023714 16 28 0.0 0.0 0.00 0.03 0.03 56 934.5
20260831023213 16 16 0.0 0.0 0.00 0.03 0.03 51 934.4
20260831022708 17 15 0.0 0.0 0.00 0.03 0.03 50 934.4
20260831022202 17 27 0.0 0.0 0.00 0.03 0.03 50 934.4
20260831021702 17 15 0.0 0.0 0.00 0.03 0.03 51 934.5
20260831021157 17 14 0.0 0.0 0.00 0.03 0.03 50 934.1
20260831020653 18 10 0.0 0.0 0.00 0.03 0.03 49 934.2
20260831020147 18 15 0.0 0.0 0.00 0.03 0.03 47 934.2
20260831015643 18 323 0.0 0.0 0.00 0.03 0.03 45 934.2
20260831015142 19 302 0.0 8.0 0.00 0.03 0.03 44 934.3
20260831014637 20 1 0.0 1.6 0.00 0.03 0.03 42 934.1
20260831014133 20 6 0.0 4.8 0.00 0.03 0.03 42 934.3
20260831013629 20 293 0.0 3.2 0.00 0.03 0.03 41 934.4
20260831013128 20 316 0.0 0.0 0.00 0.03 0.03 42 934.5
20260831012623 20 359 4.8 11.3 0.00 0.03 0.03 42 934.5
20260831012119 20 349 0.0 11.3 0.00 0.03 0.03 41 934.5
20260831011618 21 349 0.0 0.0 0.00 0.03 0.03 40 934.2
20260831011114 21 354 4.8 12.9 0.00 0.03 0.03 38 934.3
20260831010610 21 340 0.0 1.6 0.00 0.03 0.03 34 934.1
20260831010105 22 354 0.0 8.0 0.00 0.03 0.03 32 934.1
20260831005559 22 274 1.6 8.0 0.00 0.03 0.03 31 934.0
20260831005054 22 9 0.0 3.2 0.00 0.03 0.03 31 933.7
20260831004550 22 340 9.7 16.1 0.00 0.03 0.03 29 934.0
20260831004046 22 296 6.4 24.1 0.00 0.03 0.03 29 934.1
20260831003542 22 303 14.5 20.9 0.00 0.03 0.03 29 934.3
20260831003038 22 279 9.7 17.7 0.00 0.03 0.03 32 934.2
20260831002536 23 308 9.7 16.1 0.00 0.03 0.03 29 934.4
20260831002031 23 287 14.5 22.5 0.00 0.03 0.03 30 934.2
20260831001527 23 357 11.3 22.5 0.00 0.03 0.03 29 934.3
20260831001023 23 304 4.8 20.9 0.00 0.03 0.03 28 934.1
20260831000519 23 355 9.7 22.5 0.00 0.03 0.03 29 934.4
20260831000018 23 348 11.3 25.7 0.00 0.03 0.03 28 934.2
20260830235512 23 346 8.0 25.7 0.00 0.03 0.03 30 934.4
20260830235007 23 307 9.7 24.1 0.00 0.03 0.03 29 933.9
20260830234502 23 258 8.0 17.7 0.00 0.03 0.03 29 933.9
20260830233957 23 2 8.0 14.5 0.00 0.03 0.03 31 934.0
20260830233453 23 300 4.8 14.5 0.00 0.03 0.03 30 934.2
20260830232949 23 312 4.8 20.9 0.00 0.03 0.03 31 934.0
20260830232444 23 307 6.4 17.7 0.00 0.03 0.03 31 933.9
20260830231940 23 265 9.7 17.7 0.00 0.03 0.03 31 934.0
20260830231435 23 335 1.6 16.1 0.00 0.03 0.03 31 934.3
20260830230934 23 11 3.2 22.5 0.00 0.03 0.03 31 934.5
20260830230430 23 218 0.0 1.6 0.00 0.03 0.03 32 934.2
20260830225929 23 306 1.6 27.4 0.00 0.03 0.03 33 934.3
20260830225425 23 299 3.2 22.5 0.00 0.03 0.03 33 934.1
20260830224920 23 222 9.7 20.9 0.00 0.03 0.03 34 934.1
20260830224419 23 244 6.4 25.7 0.00 0.03 0.03 34 934.2
20260830223916 23 336 17.7 22.5 0.00 0.03 0.03 33 934.1
20260830223412 23 301 9.7 17.7 0.00 0.03 0.03 35 934.1
20260830222911 23 337 17.7 24.1 0.00 0.03 0.03 35 934.4
20260830222406 23 301 17.7 29.0 0.00 0.03 0.03 35 934.1
20260830221902 23 268 20.9 25.7 0.00 0.03 0.03 35 934.0
20260830221358 23 334 9.7 17.7 0.00 0.03 0.03 35 934.2
20260830220853 23 250 14.5 17.7 0.00 0.03 0.03 36 934.0
20260830220352 23 258 1.6 17.7 0.00 0.03 0.03 36 934.2
20260830215851 23 264 4.8 8.0 0.00 0.03 0.03 38 934.1
20260830215350 23 306 6.4 11.3 0.00 0.03 0.03 37 934.5
20260830214845 23 296 16.1 22.5 0.00 0.03 0.03 39 934.4
20260830214341 23 254 9.7 14.5 0.00 0.03 0.03 37 934.3
20260830213840 23 250 12.9 12.9 0.00 0.03 0.03 37 934.3
20260830213336 23 358 0.0 14.5 0.00 0.03 0.03 37 934.3
20260830212831 23 250 8.0 20.9 0.00 0.03 0.03 38 934.4
20260830212327 24 265 1.6 20.9 0.00 0.03 0.03 36 934.4
20260830211826 23 295 12.9 16.1 0.00 0.03 0.03 35 934.4
20260830211320 23 250 8.0 17.7 0.00 0.03 0.03 37 934.5
20260830210816 23 76 4.8 17.7 0.00 0.03 0.03 36 934.7
20260830210315 23 295 4.8 12.9 0.00 0.03 0.03 38 934.8
20260830205814 23 274 9.7 16.1 0.00 0.03 0.03 35 934.7
20260830205313 23 235 8.0 17.7 0.00 0.03 0.03 36 934.5
20260830204809 23 294 9.7 22.5 0.00 0.03 0.03 38 934.7
20260830204307 23 267 3.2 12.9 0.00 0.03 0.03 37 934.7
20260830203803 23 239 17.7 25.7 0.00 0.03 0.03 34 934.5
20260830203259 23 302 8.0 12.9 0.00 0.03 0.03 36 934.7
20260830202758 23 284 0.0 20.9 0.00 0.03 0.03 36 934.5
20260830202254 23 270 14.5 17.7 0.00 0.03 0.03 35 934.7
20260830201754 23 260 8.0 14.5 0.00 0.03 0.03 38 934.7
20260830201249 23 243 16.1 22.5 0.00 0.03 0.03 37 934.7
20260830200744 23 259 12.9 20.9 0.00 0.03 0.03 38 934.7
20260830200243 22 272 14.5 24.1 0.00 0.03 0.03 38 934.4
20260830195739 22 301 14.5 22.5 0.00 0.03 0.03 38 934.7
20260830195237 23 255 4.8 14.5 0.00 0.03 0.03 38 934.7
20260830194736 23 235 8.0 16.1 0.00 0.03 0.03 39 934.7
20260830194231 22 248 6.4 20.9 0.00 0.03 0.03 42 934.9
20260830193731 23 259 4.8 14.5 0.00 0.03 0.03 39 934.8
20260830193226 22 164 6.4 14.5 0.00 0.03 0.03 41 934.7
20260830192722 22 195 3.2 9.7 0.00 0.03 0.03 43 934.7
20260830192216 22 281 11.3 16.1 0.00 0.03 0.03 41 934.8
20260830191708 22 255 19.3 25.7 0.00 0.03 0.03 42 934.8
20260830191207 22 256 12.9 17.7 0.00 0.03 0.03 39 934.9
20260830190702 22 254 14.5 22.5 0.00 0.03 0.03 40 934.9
20260830190202 22 286 8.0 12.9 0.00 0.03 0.03 43 934.8
20260830185700 22 248 11.3 16.1 0.00 0.03 0.03 44 934.9
20260830185157 21 256 6.4 17.7 0.00 0.03 0.03 47 934.7
20260830184655 21 261 0.0 12.9 0.00 0.03 0.03 48 934.8
20260830184155 21 222 9.7 20.9 0.00 0.03 0.03 47 934.8
20260830183650 21 10 6.4 20.9 0.00 0.03 0.03 47 934.5
20260830183146 21 329 8.0 17.7 0.00 0.03 0.03 49 934.7
20260830182646 21 353 3.2 11.3 0.00 0.03 0.03 49 934.7
20260830182143 20 313 6.4 12.9 0.00 0.03 0.03 49 934.7
20260830181638 21 328 9.7 16.1 0.00 0.03 0.03 49 934.8
20260830181138 20 328 8.0 12.9 0.00 0.03 0.03 49 934.7
20260830180637 20 288 1.6 17.7 0.00 0.03 0.03 49 934.7
20260830180132 20 212 4.8 14.5 0.00 0.03 0.03 50 934.8
20260830175631 21 334 0.0 11.3 0.00 0.03 0.03 51 934.8
20260830175126 21 313 1.6 9.7 0.00 0.03 0.03 52 934.5
20260830174622 21 335 0.0 11.3 0.00 0.03 0.03 52 934.9
20260830174117 21 314 8.0 14.5 0.00 0.03 0.03 50 934.8
20260830173612 21 299 8.0 14.5 0.00 0.03 0.03 50 934.8
20260830173107 21 272 6.4 11.3 0.00 0.03 0.03 52 934.8
20260830172604 21 269 8.0 16.1 0.00 0.03 0.03 50 934.8
20260830172100 20 306 4.8 11.3 0.00 0.03 0.03 54 934.5
20260830171550 20 256 3.2 9.7 0.00 0.03 0.03 55 934.9
20260830171045 20 260 11.3 14.5 0.00 0.03 0.03 56 934.8
20260830170544 20 225 4.8 4.8 0.00 0.03 0.03 56 934.5
20260830170043 20 349 4.8 14.5 0.00 0.03 0.03 57 934.7
20260830165538 20 314 4.8 11.3 0.00 0.03 0.03 58 934.5
20260830165034 20 227 11.3 20.9 0.00 0.03 0.03 58 934.7
20260830164530 20 198 3.2 9.7 0.00 0.03 0.03 58 934.7
20260830164026 20 298 3.2 8.0 0.00 0.03 0.03 61 934.4
20260830163523 19 212 1.6 12.9 0.00 0.03 0.03 63 934.7
20260830163022 18 194 9.7 12.9 0.00 0.03 0.03 62 934.4
20260830162518 18 205 9.7 14.5 0.00 0.03 0.03 63 934.4
20260830162013 18 251 8.0 11.3 0.00 0.03 0.03 67 934.4
20260830161507 17 183 6.4 12.9 0.00 0.03 0.03 70 934.7
20260830161001 16 161 3.2 3.2 0.00 0.03 0.03 76 934.8
20260830160458 16 52 1.6 3.2 0.00 0.03 0.03 80 934.7
20260830155953 16 44 0.0 8.0 0.00 0.03 0.03 81 934.8
20260830155450 16 97 4.8 4.8 0.00 0.03 0.03 81 934.9
20260830154944 16 138 8.0 12.9 0.00 0.03 0.03 81 935.0
20260830154440 15 97 1.6 12.9 0.00 0.03 0.03 81 935.5
20260830153936 15 106 0.0 0.0 0.00 0.03 0.03 82 935.3
20260830153432 15 170 3.2 9.7 0.00 0.03 0.03 81 935.5
20260830152931 15 41 1.6 3.2 0.00 0.03 0.03 81 935.2
20260830152426 15 51 0.0 4.8 0.00 0.03 0.03 81 935.5
20260830151920 15 113 0.0 4.8 0.00 0.03 0.03 81 935.3
20260830151419 15 102 0.0 1.6 0.00 0.03 0.03 84 935.3
20260830150914 14 64 0.0 1.6 0.00 0.03 0.03 86 935.3
20260830150414 13 91 0.0 1.6 0.00 0.03 0.03 88 935.3
20260830145908 13 45 0.0 3.2 0.00 0.03 0.03 90 935.5
20260830145403 12 93 3.2 4.8 0.00 0.03 0.03 91 935.5
20260830144858 12 43 0.0 0.0 0.00 0.03 0.03 91 935.6
20260830144355 12 81 0.0 1.6 0.00 0.03 0.03 91 935.7
20260830143849 12 43 0.0 0.0 0.00 0.03 0.03 90 935.7
20260830143344 12 45 1.6 1.6 0.00 0.03 0.03 90 935.6
20260830142843 12 120 3.2 4.8 0.00 0.03 0.03 90 935.3
20260830142338 12 50 4.8 4.8 0.00 0.03 0.03 91 935.5
20260830141833 12 36 0.0 0.0 0.00 0.03 0.03 91 935.6
20260830141328 12 82 0.0 0.0 0.00 0.03 0.03 91 935.3
20260830140823 12 88 1.6 4.8 0.00 0.03 0.03 92 935.8
20260830140318 12 57 0.0 0.0 0.13 0.03 0.03 92 935.8
20260830135813 11 69 1.6 4.8 0.13 0.03 0.03 92 936.2
20260830135309 11 79 4.8 4.8 0.00 0.00 0.00 92 936.2
20260830134804 11 34 0.0 0.0 0.00 0.00 0.00 92 935.9
20260830134304 11 54 1.6 4.8 0.00 0.00 0.00 92 936.1
20260830133800 11 46 0.0 4.8 0.00 0.00 0.00 92 936.1
20260830133255 11 117 0.0 0.0 0.00 0.00 0.00 92 936.2
20260830132750 11 29 0.0 0.0 0.00 0.00 0.00 92 936.4
20260830132246 11 41 1.6 3.2 0.00 0.00 0.00 92 936.1
20260830131745 11 39 0.0 0.0 0.00 0.00 0.00 92 935.8
20260830131240 11 43 0.0 0.0 0.00 0.00 0.00 92 935.0
20260830130736 11 45 0.0 0.0 0.00 0.00 0.00 92 934.2
20260830130236 11 53 0.0 4.8 0.00 0.00 0.00 92 934.4
20260830125730 11 34 0.0 0.0 0.00 0.00 0.00 92 934.9
20260830125225 11 50 0.0 0.0 0.00 0.00 0.00 92 934.9
20260830124722 11 94 0.0 0.0 0.00 0.00 0.00 92 934.8
20260830124218 11 13 3.2 8.0 0.00 0.00 0.00 92 934.3
20260830123715 11 74 0.0 0.0 0.00 0.00 0.00 92 933.9
20260830123211 11 71 3.2 4.8 0.00 0.00 0.00 92 933.4
20260830122709 11 55 0.0 3.2 0.00 0.00 0.00 92 933.5
20260830122203 11 74 0.0 1.6 0.00 0.00 0.00 92 933.7
20260830121659 11 80 3.2 4.8 0.00 0.00 0.00 92 934.1
20260830121158 11 26 0.0 3.2 0.00 0.00 0.00 92 933.5
20260830120653 11 39 0.0 0.0 0.00 0.00 0.00 92 933.5
20260830120149 11 66 0.0 3.2 0.00 0.00 0.00 92 933.4
20260830115644 11 45 1.6 3.2 0.00 0.00 0.00 92 933.6
20260830115135 11 78 3.2 4.8 0.00 0.00 0.00 92 933.4
20260830114632 11 49 0.0 0.0 0.00 0.00 0.00 92 933.3
20260830114131 11 45 0.0 0.0 0.00 0.00 0.00 92 933.4
20260830113626 11 41 0.0 0.0 0.00 0.00 0.00 91 933.3
20260830113121 11 40 0.0 0.0 0.00 0.00 0.00 91 933.5
20260830112618 11 43 0.0 0.0 0.00 0.00 0.00 91 933.6
20260830112114 11 36 0.0 0.0 0.00 0.00 0.00 90 933.7
20260830111609 11 30 0.0 0.0 0.00 0.00 0.00 90 933.6
20260830111105 11 32 0.0 0.0 0.00 0.00 0.00 90 933.9
20260830110604 11 44 0.0 0.0 0.00 0.00 0.00 89 933.6
20260830110100 11 92 0.0 0.0 0.00 0.00 0.00 89 934.2
20260830105555 12 53 0.0 1.6 0.00 0.00 0.00 89 934.1
20260830105051 12 153 0.0 0.0 0.00 0.00 0.00 89 934.1
20260830104548 12 57 0.0 0.0 0.00 0.00 0.00 89 934.0
20260830104044 12 40 0.0 0.0 0.00 0.00 0.00 88 933.9
20260830103543 12 51 0.0 0.0 0.00 0.00 0.00 88 934.5